Regional Weather Roundup
Issued by NWS

Home | Current Version | Previous Version | Text Only | Print | Product List | Glossary Off
Versions: 1 2 3 4 5 6 7 8 9 10 11 12 13 14 15 16 17 18 19 20 21 22 23 24 25 26 27 28 29 30 31 32 33 34 35 36 37 38 39 40 41 42 43 44 45 46 47 48 49 50

000
ASUS45 KSLC 191610
RWRUT

UTAH REGIONAL WEATHER ROUNDUP
NATIONAL WEATHER SERVICE SALT LAKE CITY UT
1000 AM MDT FRI SEP 19 2014

UTZ001>011-023>025-191700-

NORTHERN UTAH

CITY           SKY/WX    TMP DP  RH WIND       PRES   REMARKS
HILL AFB       MOSUNNY   70  51  51 SE8       30.08R
LOGAN          SUNNY     62  57  83 CALM      30.09R
OGDEN          SUNNY     69  56  62 W5        30.05R
PROVO AIRPORT  MOSUNNY   70  55  60 VRB5      30.08R
SALT LAKE CITY MOSUNNY   69  57  65 W3        30.05R
VERNAL         SUNNY     72  46  39 NE7       30.10R
WENDOVER       SUNNY     72  43  35 N5        30.07R
HEBER CITY     SUNNY     63  52  67 CALM      30.13S
WEST JORDAN    MOSUNNY   70  55  60 CALM      30.09R

$$

UTZ012>022-026-027-191700-

SOUTHERN UTAH

CITY           SKY/WX    TMP DP  RH WIND       PRES   REMARKS
BRYCE CANYON   CLOUDY    61  47  59 NW5       30.25R
CEDAR CITY     MOSUNNY   71  52  50 NE3       30.11R
MILFORD        SUNNY     74  50  42 N6        30.07R
MOAB/CYNLANDS  SUNNY     77  42  28 SE7       29.99S
PRICE          MOSUNNY   75  44  33 W3        30.10R
ST GEORGE      MOSUNNY   77  52  41 CALM      29.95S
KANAB          PTSUNNY   72  48  43 CALM      30.10R

$$

REGIONAL REPORTS     COLORADO/ARIZONA

CITY           SKY/WX    TMP DP  RH WIND       PRES   REMARKS
CRAIG, CO      SUNNY     65  44  46 VRB5      30.17S
GRAND JUNCTION SUNNY     73  43  33 SE12      30.05R
RIFLE          SUNNY     64  43  46 CALM      30.12S
MONTROSE       MOSUNNY   71  43  36 CALM      30.12S
CORTEZ         SUNNY     69  46  43 CALM      30.13S
PAGE, AZ       PTSUNNY   82  49  31 NW3       30.01R
GRAND CANYON   PTSUNNY   64  57  78 CALM      30.19S
KINGMAN        SUNNY     80  55  42 E15       29.97R
FLAGSTAFF      PTSUNNY   63  56  78 W3        30.21R

$$

REGIONAL REPORTS    NEVADA/IDAHO/WYOMING

CITY           SKY/WX    TMP DP  RH WIND       PRES   REMARKS
LAS VEGAS, NV  MOSUNNY   81  45  28 SW6       29.85R
ELY            SUNNY     62  44  51 VRB3      30.17R
ELKO           SUNNY     57  49  74 SW3       30.12R HAZE
POCATELLO, ID  SUNNY     63  47  55 SW18      30.12R
BURLEY         LGT RAIN  65  45  48 W15G24    30.09S
EVANSTON, WY   SUNNY     61  49  64 N3        30.21R
ROCK SPRINGS   MOSUNNY   60  48  64 W7        30.18R

$$


USA.gov is the U.S. government's official web portal to all federal, state and local government web resources and services.